TimeEDT,TemperatureF,Dew PointF,Humidity,Sea Level PressureIn,VisibilityMPH,Wind Direction,Wind SpeedMPH,Gust SpeedMPH,PrecipitationIn,Events,Conditions,WindDirDegrees,DateUTC
12:37 AM,52.7,47.3,82,30.27,10.0,NW,5.8,17.3,N/A,,Clear,310,2012-09-15 04:37:00
12:55 AM,52.5,47.3,82,30.27,10.0,WNW,5.8,-,N/A,,Clear,290,2012-09-15 04:55:00
1:15 AM,52.0,47.3,84,30.27,10.0,WNW,9.2,-,N/A,,Clear,300,2012-09-15 05:15:00
1:35 AM,51.6,47.1,85,30.27,10.0,NW,6.9,-,N/A,,Clear,320,2012-09-15 05:35:00
1:55 AM,50.5,47.3,89,30.28,10.0,NNW,6.9,-,N/A,,Scattered Clouds,330,2012-09-15 05:55:00
2:15 AM,50.0,47.5,91,30.27,10.0,NNW,5.8,-,N/A,,Scattered Clouds,330,2012-09-15 06:15:00
2:35 AM,49.5,47.5,93,30.28,10.0,North,5.8,-,N/A,,Clear,350,2012-09-15 06:35:00
2:55 AM,49.3,47.7,94,30.27,10.0,NNW,5.8,-,N/A,,Clear,340,2012-09-15 06:55:00
3:13 AM,49.3,48.0,95,30.28,10.0,North,6.9,-,N/A,,Clear,360,2012-09-15 07:13:00
3:37 AM,50.0,48.2,94,30.27,10.0,NNE,9.2,-,N/A,,Clear,20,2012-09-15 07:37:00
3:55 AM,50.0,47.7,92,30.27,10.0,NNE,6.9,-,N/A,,Clear,30,2012-09-15 07:55:00
4:15 AM,49.8,46.9,90,30.27,10.0,NNE,8.1,-,N/A,,Clear,30,2012-09-15 08:15:00
4:35 AM,49.1,46.4,90,30.28,10.0,NNE,6.9,-,N/A,,Scattered Clouds,30,2012-09-15 08:35:00
4:55 AM,48.4,45.5,90,30.28,10.0,NE,10.4,-,N/A,,Scattered Clouds,40,2012-09-15 08:55:00
5:15 AM,47.8,44.6,89,30.29,10.0,NNE,6.9,-,N/A,,Mostly Cloudy,30,2012-09-15 09:15:00
5:35 AM,47.8,44.1,87,30.29,10.0,NNE,6.9,-,N/A,,Overcast,20,2012-09-15 09:35:00
5:54 AM,47.5,44.1,88,30.29,10.0,NNE,8.1,-,N/A,,Scattered Clouds,30,2012-09-15 09:54:00
6:15 AM,46.8,43.7,89,30.30,10.0,NNE,8.1,-,N/A,,Clear,30,2012-09-15 10:15:00
6:33 AM,46.4,43.3,89,30.30,10.0,NE,6.9,-,N/A,,Scattered Clouds,40,2012-09-15 10:33:00
6:55 AM,46.0,43.0,89,30.31,10.0,NE,6.9,-,N/A,,Clear,40,2012-09-15 10:55:00
7:15 AM,46.0,41.9,85,30.32,10.0,NE,6.9,-,N/A,,Clear,40,2012-09-15 11:15:00
7:35 AM,46.8,41.5,82,30.32,10.0,ENE,5.8,-,N/A,,Clear,60,2012-09-15 11:35:00
7:55 AM,48.2,40.5,75,30.33,10.0,ENE,5.8,-,N/A,,Clear,60,2012-09-15 11:55:00
8:15 AM,49.1,39.9,71,30.33,10.0,ENE,6.9,-,N/A,,Clear,70,2012-09-15 12:15:00
8:35 AM,50.0,40.1,69,30.33,10.0,ENE,6.9,-,N/A,,Clear,60,2012-09-15 12:35:00
8:55 AM,50.7,38.7,63,30.33,10.0,ENE,6.9,-,N/A,,Clear,70,2012-09-15 12:55:00
9:15 AM,51.1,38.1,61,30.34,10.0,ENE,6.9,-,N/A,,Clear,60,2012-09-15 13:15:00
9:35 AM,51.6,37.2,58,30.34,10.0,ENE,4.6,-,N/A,,Clear,70,2012-09-15 13:35:00
9:55 AM,52.0,37.0,57,30.34,10.0,ENE,6.9,-,N/A,,Clear,60,2012-09-15 13:55:00
10:15 AM,52.0,36.9,56,30.34,10.0,Calm,Calm,-,N/A,,Clear,0,2012-09-15 14:15:00
10:35 AM,52.0,37.4,58,30.33,10.0,East,4.6,-,N/A,,Clear,100,2012-09-15 14:35:00
10:55 AM,52.5,37.6,57,30.33,10.0,East,6.9,-,N/A,,Clear,100,2012-09-15 14:55:00
11:15 AM,53.1,37.8,56,30.33,10.0,NE,4.6,-,N/A,,Clear,50,2012-09-15 15:15:00
11:35 AM,53.2,36.0,52,30.32,10.0,East,4.6,-,N/A,,Clear,90,2012-09-15 15:35:00
11:55 AM,53.6,36.7,53,30.32,10.0,East,8.1,-,N/A,,Clear,80,2012-09-15 15:55:00
12:15 PM,54.5,37.9,54,30.31,10.0,East,6.9,-,N/A,,Clear,90,2012-09-15 16:15:00
12:35 PM,54.7,38.3,54,30.30,10.0,East,6.9,-,N/A,,Clear,80,2012-09-15 16:35:00
12:55 PM,54.9,37.8,53,30.30,10.0,ENE,4.6,-,N/A,,Clear,70,2012-09-15 16:55:00
1:15 PM,55.4,37.2,50,30.29,10.0,ENE,5.8,-,N/A,,Clear,60,2012-09-15 17:15:00
1:35 PM,55.9,37.2,49,30.28,10.0,Calm,Calm,-,N/A,,Clear,0,2012-09-15 17:35:00
1:55 PM,56.5,37.0,48,30.27,10.0,ENE,3.5,-,N/A,,Clear,70,2012-09-15 17:55:00
2:15 PM,57.2,36.3,46,30.27,10.0,ENE,3.5,-,N/A,,Clear,70,2012-09-15 18:15:00
2:35 PM,57.7,35.1,43,30.26,10.0,NE,3.5,-,N/A,,Clear,50,2012-09-15 18:35:00
2:55 PM,58.5,36.0,43,30.25,10.0,NE,3.5,-,N/A,,Clear,40,2012-09-15 18:55:00
3:13 PM,58.3,35.2,42,30.24,10.0,Calm,Calm,-,N/A,,Clear,0,2012-09-15 19:13:00
3:33 PM,59.7,35.6,41,30.23,10.0,Calm,Calm,-,N/A,,Clear,0,2012-09-15 19:33:00
3:55 PM,59.9,36.1,41,30.23,10.0,ENE,4.6,-,N/A,,Clear,60,2012-09-15 19:55:00
4:15 PM,60.1,36.5,41,30.22,10.0,ENE,5.8,-,N/A,,Clear,60,2012-09-15 20:15:00
4:34 PM,60.1,36.9,42,30.21,10.0,East,3.5,-,N/A,,Clear,80,2012-09-15 20:34:00
4:55 PM,60.3,36.3,41,30.21,10.0,NE,4.6,-,N/A,,Clear,40,2012-09-15 20:55:00
5:15 PM,59.9,39.0,46,30.20,10.0,Calm,Calm,-,N/A,,Clear,0,2012-09-15 21:15:00
5:34 PM,59.0,39.4,48,30.20,10.0,ESE,3.5,-,N/A,,Clear,110,2012-09-15 21:34:00
5:55 PM,59.4,38.7,46,30.19,10.0,Calm,Calm,-,N/A,,Clear,0,2012-09-15 21:55:00
6:15 PM,59.2,39.4,48,30.18,10.0,East,3.5,-,N/A,,Clear,100,2012-09-15 22:15:00
6:34 PM,58.1,39.7,50,30.17,10.0,Calm,Calm,-,N/A,,Clear,0,2012-09-15 22:34:00
6:55 PM,58.1,40.3,52,30.17,10.0,SE,3.5,-,N/A,,Clear,130,2012-09-15 22:55:00
7:11 PM,57.6,40.3,53,30.16,10.0,ESE,3.5,-,N/A,,Clear,110,2012-09-15 23:11:00
7:23 PM,56.7,41.2,56,30.16,10.0,ESE,4.6,-,N/A,,Clear,120,2012-09-15 23:23:00
7:55 PM,52.5,42.6,69,30.15,10.0,ESE,6.9,-,N/A,,Clear,120,2012-09-15 23:55:00
8:15 PM,51.1,42.8,73,30.15,10.0,SE,6.9,-,N/A,,Clear,130,2012-09-16 00:15:00
8:33 PM,53.1,42.6,68,30.15,10.0,SE,6.9,-,N/A,,Clear,140,2012-09-16 00:33:00
8:55 PM,52.9,42.8,69,30.15,10.0,SE,6.9,-,N/A,,Clear,140,2012-09-16 00:55:00
9:15 PM,52.7,42.3,68,30.15,10.0,SE,6.9,-,N/A,,Clear,140,2012-09-16 01:15:00
9:34 PM,53.4,42.8,67,30.15,10.0,SE,6.9,-,N/A,,Clear,140,2012-09-16 01:34:00
9:55 PM,53.8,44.1,70,30.15,10.0,SE,6.9,-,N/A,,Clear,140,2012-09-16 01:55:00
10:15 PM,53.8,44.6,71,30.14,10.0,SSE,6.9,-,N/A,,Clear,150,2012-09-16 02:15:00
10:35 PM,53.8,44.2,70,30.14,10.0,SSE,6.9,-,N/A,,Clear,150,2012-09-16 02:35:00
10:55 PM,54.0,43.9,69,30.14,10.0,SSE,8.1,-,N/A,,Clear,150,2012-09-16 02:55:00
11:15 PM,54.0,43.9,69,30.13,10.0,SSE,11.5,17.3,N/A,,Clear,150,2012-09-16 03:15:00
11:55 PM,53.6,43.7,69,30.12,10.0,SSE,8.1,-,N/A,,Clear,150,2012-09-16 03:55:00